Regional Weather Roundup
Issued by NWS Goodland, KS

Home | Current Version | Previous Version | Text Only | Print | Product List | Glossary On
Versions: 1 2 3 4 5 6 7 8 9 10 11 12 13 14 15 16 17 18 19 20 21 22 23 24 25 26 27 28 29 30 31 32 33 34 35 36 37 38 39 40 41 42 43 44 45 46 47 48 49 50
000
ASUS43 KGLD 240208
RWRGLD

GOODLAND FORECAST AREA HOURLY WEATHER ROUNDUP
NATIONAL WEATHER SERVICE GOODLAND KS
700 PM MST MON JAN 23 2017

...OFFICIAL OBSERVATIONS...

CITY           SKY/WX    TMP DP  RH WIND       PRES   REMARKS
GOODLAND KS    CLEAR     36  29  75 E9        29.52F
HILL CITY KS   CLEAR     39  33  79 E8        29.59S
IMPERIAL NEB   CLEAR     35  27  72 E9        29.56F
MCCOOK NEB     MOCLDY    38  31  76 E12       29.57F
AKRON CO       CLOUDY    35  25  66 E9        29.53S
BURLINGTON CO  CLEAR     34  27  75 E5        29.52F
LIMON CO       CLEAR     39  24  55 SW9       29.51F
$$

...UNOFFICIAL OBSERVATIONS...

CITY           SKY/WX    TMP DP  RH WIND       PRES   REMARKS
LENORA KS        N/A     40  32  73 E7          N/A
NORTON KS      CLEAR     37  28  70 E9        29.59S
SHARON SPRINGS   N/A     41  32  69 SW6         N/A
TRENTON NEB      N/A     39  32  76 E6          N/A
KIT CARSON CO    N/A     42  29  59 MISG        N/A
YUMA CO        FAIR      32  27  80 N8        29.54F
$$




USA.gov is the U.S. government's official web portal to all federal, state and local government web resources and services.